Regional Weather Roundup
Issued by NWS Sterling, VA

Home | Current Version | Previous Version | Text Only | Print | Product List | Glossary Off
Versions: 1 2 3 4 5 6 7 8 9 10 11 12 13 14 15 16 17 18 19 20 21 22 23 24 25 26 27 28 29 30 31 32 33 34 35 36 37 38 39 40 41 42 43 44 45 46 47 48 49 50

000
ASUS41 KLWX 180210
RWRLWX

REGIONAL WEATHER ROUNDUP
NATIONAL WEATHER SERVICE BALTIMORE MD/WASHINGTON DC
1000 PM EDT FRI APR 17 2015

Note: "FAIR" indicates few or no clouds below 12,000 feet
with no significant weather and/or obstructions to visibility.
 TC=TEMPERATURE CELSIUS

 * =Non NWS site. Station does not report precipitation (e.g. rain,
    snow, etc.), thunder, or fog.

DCZ001-MDZ009-015-VAZ040>042-051-053>054-180300-
WASHINGTON METRO

CITY           SKY/WX    TMP DP  RH WIND       PRES   REMARKS
WASHINGTON NAT MOCLDY    70  61  73 CALM      29.98R
DULLES         MOCLDY    66  58  75 W3        29.99R
ANDREWS AFB    MOCLDY    68  60  74 CALM      29.98R
FT BELVOIR     MOCLDY    67  59  77 CALM      29.98R
QUANTICO       MOCLDY    68  59  73 SW3       29.99R
COLLEGE PARK*  CLOUDY    66  59  77 CALM      29.98R
LEESBURG*      PTCLDY    68  61  77 NW9       30.00R
MANASSAS*      MOCLDY    66  63  88 CALM      29.97S
GAITHERSBURG*  PTCLDY    64  54  68 CALM      30.03R

$$

MDZ006>007-011-014-180300-
BALTIMORE METRO

CITY           SKY/WX    TMP DP  RH WIND       PRES   REMARKS
BWI AIRPORT    PTCLDY    68  57  68 CALM      29.97R
MD SCIENCE CTR   N/A     68  57  68 MISG      29.98R
MARTIN STATE   MOCLDY    63  61  94 CALM      29.99R
ANNAPOLIS      CLOUDY    60  57  89 SE7       29.97R
FORT MEADE*    PTCLDY    64  55  72 CALM      30.00R

$$

MDZ012-015-019>023-180300-
MARYLAND EASTERN SHORE

CITY           SKY/WX    TMP DP  RH WIND       PRES   REMARKS
OCEAN CITY     PTCLDY    60  57  89 SW6       29.99R
SALISBURY      PTCLDY    62  59  90 S3        29.98R
BAY BRIDGE AP* LGT RAIN  61  59  94 W7        29.99R
CAMBRIDGE*     MOCLDY    66  59  77 S6        29.98R
EASTON*        CLOUDY    69  64  84 S3        30.01

$$

MDZ017>025-180300-
SOUTHERN MARYLAND

CITY           SKY/WX    TMP DP  RH WIND       PRES   REMARKS
PATUXENT RIVER MOCLDY    63  59  87 S5        29.97R
ST INIGOES     MOCLDY    66  59  78 SE8       29.97R
LEONARDTOWN*   MOCLDY    66  59  77 S5        29.99R

$$

MDZ003>005-180300-
NORTH CENTRAL MARYLAND

CITY           SKY/WX    TMP DP  RH WIND       PRES   REMARKS
FREDERICK*     NOT AVBL
HAGERSTOWN APT PTCLDY    66  51  58 CALM      30.00R
WESTMINSTER*   PTCLDY    66  55  68 CALM      30.01R

$$

MDZ501>502-180300-
WESTERN MARYLAND

CITY           SKY/WX    TMP DP  RH WIND       PRES   REMARKS
OAKLAND*       MOCLDY    55 N/A N/A CALM      30.08R
CUMBERLAND*    PTCLDY    64  54  68 CALM      30.06R

$$

VAZ025>031-180300-
SHENANDOAH VALLEY

CITY           SKY/WX    TMP DP  RH WIND       PRES   REMARKS
WINCHESTER*    MOCLDY    64  48  55 CALM      30.01R
FRONT ROYAL*   NOT AVBL
LURAY*         NOT AVBL
NEW MARKET*    NOT AVBL
STAUNTON*      MOCLDY    63  58  84 CALM      30.05R
WAYNESBORO*    NOT AVBL

$$

WVZ021-048>050-054>055-180300-
EASTERN WEST VIRGINIA PANHANDLE

CITY           SKY/WX    TMP DP  RH WIND       PRES   REMARKS
MARTINSBURG    NOT AVBL
PETERSBURG*    MOCLDY    56  48  75 NW3       30.05R

$$

VAZ036>039-050-180300-
CENTRAL FOOTHILLS

CITY           SKY/WX    TMP DP  RH WIND       PRES   REMARKS
CHARLOTTESVILL MOCLDY    64  61  90 CALM      30.01R
CULPEPER*      MOCLDY    66  63  88 CALM      30.00R
ORANGE*        MOCLDY    61  61 100 CALM      30.02R
GORDONSVILLE*  MOCLDY    60  59  96 CALM      30.00R
WARRENTON*     CLOUDY    62  62  99 CALM      29.99R

$$

VAZ055>057-180300-
NORTH AND CENTRAL PIEDMONT

CITY           SKY/WX    TMP DP  RH WIND       PRES   REMARKS
FREDERICKSBRG* MOCLDY    65  65 100 CALM      29.98R
STAFFORD*      CLOUDY    62  32  32 CALM      30.03R

$$

NCZ024-NYZ072-PAZ021-071-VAZ022-071-180300-
OTHER REGIONAL OBSERVATIONS

CITY           SKY/WX    TMP DP  RH WIND       PRES   REMARKS
NEW YORK CITY  CLEAR     66  52  60 CALM      29.97R
PHILADELPHIA   PTCLDY    66  58  75 SW6       29.98R
PITTSBURGH     MOCLDY    63  47  55 N6        30.04R
ROANOKE        CLOUDY    70  58  65 E5        30.03R
RICHMOND       CLOUDY    68  63  84 SW6       29.98R
RALEIGH        CLOUDY    67  62  84 SW3       30.02R

$$

ANZ530>537-180300-
MARINE OBSERVATIONS

STATION/POSITION TIME  TEMP    WIND        PRES
                       AIR SEA DIR/SP/G
                 (UTC) (F)     (DEG/KT/KT) (MB)
THOMAS PT LIGHT  0200   62 54  160/ 11/ 11 1015.7R
BALT KEY BRIDGE  0100   69     160/  4/  5 1014.4R
COVE POINT       0100   62     190/ 12/ 12 1014.4R
LEWISETTA        0100   67 60              1014.3R
SOLOMONS ISLAND  0100      56                N/A
PINEY POINT      0100          120/  5/  6   N/A

$$



USA.gov is the U.S. government's official web portal to all federal, state and local government web resources and services.